• In Belgium
  • List of Countries
  • For 7 days
  • Water Temperature
  • Satellite Maps
  • Weather Map
  • Weather Widgets
  • user-avatar
    Login

    Hourly Weather Braine-le-Comte

    Today, 25 April, Wednesday

    Time Temperature Precipitation Wind Pressure Humidity
    00:00 +12°C° 0 mm 4 mps 749 mmHg 88%
    01:00 +12°C° 0 mm 5 mps 749 mmHg 89%
    02:00 +10°C° 0 mm 5 mps 749 mmHg 89%
    03:00 +10°C° 0 mm 5 mps 749 mmHg 90%
    04:00 +10°C° 0.1 mm 5 mps 749 mmHg 88%
    05:00 +10°C° 0.1 mm 5 mps 750 mmHg 87%
    06:00 +10°C° 0.1 mm 5 mps 750 mmHg 86%
    07:00 +11°C° 0.1 mm 6 mps 750 mmHg 83%
    08:00 +11°C° 0.1 mm 6 mps 751 mmHg 79%
    09:00 +11°C° 0.1 mm 6 mps 751 mmHg 76%
    10:00 +13°C° 0.2 mm 6 mps 751 mmHg 72%
    11:00 +13°C° 0.2 mm 6 mps 751 mmHg 69%
    12:00 +14°C° 0.2 mm 6 mps 751 mmHg 65%
    13:00 +14°C° 0.2 mm 7 mps 751 mmHg 63%
    14:00 +14°C° 0.2 mm 7 mps 751 mmHg 62%
    15:00 +14°C° 0.2 mm 7 mps 751 mmHg 61%
    16:00 +12°C° 0.1 mm 7 mps 751 mmHg 64%
    17:00 +11°C° 0.1 mm 6 mps 752 mmHg 67%
    18:00 +10°C° 0.1 mm 5 mps 752 mmHg 70%
    19:00 +9°C° 0 mm 5 mps 752 mmHg 73%
    20:00 +8°C° 0 mm 5 mps 753 mmHg 76%
    21:00 +7°C° 0 mm 5 mps 753 mmHg 79%
    22:00 +7°C° 0 mm 5 mps 753 mmHg 81%
    23:00 +6°C° 0 mm 5 mps 753 mmHg 83%

    Tomorrow, 26 April, Thursday

    Time Temperature Precipitation Wind Pressure Humidity
    00:00 +6°C° 0 mm 5 mps 753 mmHg 86%
    01:00 +6°C° 0 mm 5 mps 753 mmHg 86%
    02:00 +6°C° 0 mm 5 mps 753 mmHg 87%
    03:00 +5°C° 0 mm 5 mps 754 mmHg 87%
    04:00 +6°C° 0 mm 5 mps 754 mmHg 85%
    05:00 +6°C° 0 mm 5 mps 754 mmHg 84%
    06:00 +6°C° 0 mm 5 mps 754 mmHg 82%
    07:00 +7°C° 0 mm 6 mps 755 mmHg 76%
    08:00 +9°C° 0 mm 6 mps 755 mmHg 70%
    09:00 +10°C° 0 mm 7 mps 755 mmHg 64%
    10:00 +11°C° 0.1 mm 7 mps 755 mmHg 61%
    11:00 +11°C° 0.1 mm 7 mps 755 mmHg 58%
    12:00 +12°C° 0.1 mm 7 mps 755 mmHg 55%
    13:00 +13°C° 0.1 mm 6 mps 755 mmHg 55%
    14:00 +13°C° 0.1 mm 6 mps 755 mmHg 54%
    15:00 +13°C° 0.1 mm 6 mps 755 mmHg 54%
    16:00 +12°C° 0 mm 5 mps 755 mmHg 58%
    17:00 +12°C° 0 mm 4 mps 754 mmHg 63%
    18:00 +11°C° 0 mm 3 mps 754 mmHg 67%
    19:00 +9°C° 0 mm 3 mps 755 mmHg 70%
    20:00 +8°C° 0 mm 3 mps 755 mmHg 74%
    21:00 +7°C° 0 mm 2 mps 755 mmHg 77%
    22:00 +6°C° 0 mm 2 mps 755 mmHg 77%
    23:00 +6°C° 0 mm 2 mps 754 mmHg 78%

    Day after tomorrow, 27 April, Friday

    Time Temperature Precipitation Wind Pressure Humidity
    00:00 +6°C° 0 mm 2 mps 754 mmHg 79%
    01:00 +6°C° 0 mm 2 mps 753 mmHg 80%
    02:00 +6°C° 0 mm 2 mps 753 mmHg 80%
    03:00 +5°C° 0 mm 2 mps 752 mmHg 81%
    04:00 +5°C° 0 mm 3 mps 752 mmHg 80%
    05:00 +7°C° 0 mm 3 mps 751 mmHg 79%
    06:00 +6°C° 0 mm 4 mps 751 mmHg 78%
    07:00 +8°C° 0 mm 5 mps 750 mmHg 73%
    08:00 +10°C° 0 mm 5 mps 750 mmHg 68%
    09:00 +11°C° 0 mm 6 mps 749 mmHg 63%
    10:00 +14°C° 0 mm 6 mps 749 mmHg 61%
    11:00 +15°C° 0 mm 7 mps 749 mmHg 58%
    12:00 +16°C° 0 mm 7 mps 748 mmHg 55%
    13:00 +16°C° 0 mm 7 mps 748 mmHg 57%
    14:00 +15°C° 0 mm 7 mps 747 mmHg 59%
    15:00 +15°C° 0 mm 7 mps 747 mmHg 61%
    16:00 +14°C° 0.1 mm 7 mps 747 mmHg 65%
    17:00 +13°C° 0.1 mm 6 mps 747 mmHg 69%
    18:00 +11°C° 0.1 mm 6 mps 747 mmHg 72%
    19:00 +10°C° 0 mm 6 mps 748 mmHg 74%
    20:00 +9°C° 0 mm 6 mps 748 mmHg 75%
    21:00 +8°C° 0 mm 6 mps 748 mmHg 76%
    22:00 +7°C° 0 mm 6 mps 749 mmHg 78%
    23:00 +7°C° 0 mm 6 mps 749 mmHg 80%

    28 April, Saturday

    Time Temperature Precipitation Wind Pressure Humidity
    00:00 +5°C° 0 mm 6 mps 749 mmHg 82%
    01:00 +6°C° 0 mm 5 mps 749 mmHg 84%
    02:00 +6°C° 0 mm 5 mps 750 mmHg 86%
    03:00 +5°C° 0 mm 5 mps 750 mmHg 88%
    04:00 +6°C° 0 mm 4 mps 750 mmHg 87%
    05:00 +6°C° 0 mm 4 mps 751 mmHg 86%
    06:00 +6°C° 0 mm 4 mps 751 mmHg 86%
    07:00 +7°C° 0 mm 4 mps 751 mmHg 82%
    08:00 +9°C° 0 mm 3 mps 752 mmHg 79%
    09:00 +9°C° 0 mm 3 mps 752 mmHg 75%
    10:00 +10°C° 0 mm 2 mps 752 mmHg 73%
    11:00 +10°C° 0 mm 2 mps 752 mmHg 70%
    12:00 +11°C° 0 mm 1 mps 752 mmHg 67%
    13:00 +12°C° 0 mm 1 mps 752 mmHg 66%
    14:00 +12°C° 0 mm 1 mps 751 mmHg 65%
    15:00 +12°C° 0 mm 1 mps 751 mmHg 63%
    16:00 +12°C° 0 mm 2 mps 751 mmHg 66%
    17:00 +11°C° 0 mm 3 mps 751 mmHg 69%
    18:00 +10°C° 0 mm 3 mps 751 mmHg 72%
    19:00 +10°C° 0 mm 3 mps 751 mmHg 72%
    20:00 +8°C° 0 mm 4 mps 751 mmHg 72%
    21:00 +8°C° 0 mm 4 mps 751 mmHg 72%
    22:00 +7°C° 0.8 mm 4 mps 750 mmHg 77%
    23:00 +7°C° 0.8 mm 5 mps 750 mmHg 81%

    29 April, Sunday

    Time Temperature Precipitation Wind Pressure Humidity
    00:00 +7°C° 0.8 mm 5 mps 749 mmHg 85%
    01:00 +6°C° 1.6 mm 5 mps 749 mmHg 87%
    02:00 +5°C° 1.6 mm 6 mps 748 mmHg 89%
    03:00 +5°C° 1.6 mm 6 mps 748 mmHg 91%
    04:00 +5°C° 0.1 mm 6 mps 747 mmHg 92%
    05:00 +5°C° 0.1 mm 6 mps 747 mmHg 92%
    06:00 +6°C° 0.1 mm 5 mps 747 mmHg 92%
    07:00 +6°C° 0.5 mm 5 mps 747 mmHg 92%
    08:00 +7°C° 0.5 mm 5 mps 747 mmHg 91%
    09:00 +7°C° 0.5 mm 5 mps 746 mmHg 91%
    10:00 +7°C° 0.6 mm 5 mps 746 mmHg 91%
    11:00 +8°C° 0.6 mm 5 mps 746 mmHg 91%
    12:00 +8°C° 0.6 mm 5 mps 746 mmHg 90%
    13:00 +8°C° 0.1 mm 6 mps 745 mmHg 90%
    14:00 +9°C° 0.1 mm 6 mps 745 mmHg 89%
    15:00 +9°C° 0.1 mm 6 mps 744 mmHg 88%
    16:00 +9°C° 0.2 mm 6 mps 744 mmHg 89%
    17:00 +9°C° 0.2 mm 6 mps 744 mmHg 90%
    18:00 +8°C° 0.2 mm 6 mps 743 mmHg 91%
    19:00 +8°C° 0.7 mm 7 mps 743 mmHg 92%
    20:00 +8°C° 0.7 mm 7 mps 743 mmHg 93%
    21:00 +6°C° 0.7 mm 7 mps 742 mmHg 94%
    22:00 +7°C° 3.3 mm 6 mps 742 mmHg 94%
    23:00 +7°C° 3.3 mm 6 mps 741 mmHg 95%

    30 April, Monday

    Time Temperature Precipitation Wind Pressure Humidity
    00:00 +7°C° 3.3 mm 5 mps 741 mmHg 95%
    01:00 +7°C° 2.5 mm 6 mps 741 mmHg 95%
    02:00 +7°C° 2.5 mm 6 mps 741 mmHg 94%
    03:00 +6°C° 2.5 mm 7 mps 740 mmHg 94%
    04:00 +7°C° 0.4 mm 6 mps 740 mmHg 94%
    05:00 +7°C° 0.4 mm 6 mps 740 mmHg 94%
    06:00 +7°C° 0.4 mm 5 mps 741 mmHg 94%
    07:00 +7°C° 0.6 mm 5 mps 741 mmHg 93%
    08:00 +7°C° 0.6 mm 5 mps 741 mmHg 92%
    09:00 +7°C° 0.6 mm 5 mps 742 mmHg 91%
    10:00 +7°C° 0.2 mm 5 mps 742 mmHg 89%
    11:00 +7°C° 0.2 mm 5 mps 743 mmHg 88%
    12:00 +8°C° 0.2 mm 5 mps 743 mmHg 86%
    13:00 +8°C° 0.1 mm 5 mps 743 mmHg 86%
    14:00 +8°C° 0.1 mm 5 mps 744 mmHg 85%
    15:00 +8°C° 0.1 mm 5 mps 744 mmHg 85%
    16:00 +8°C° 0.1 mm 5 mps 744 mmHg 85%
    17:00 +7°C° 0.1 mm 4 mps 745 mmHg 85%
    18:00 +8°C° 0.1 mm 3 mps 745 mmHg 85%
    19:00 +8°C° 0 mm 3 mps 745 mmHg 85%
    20:00 +7°C° 0 mm 3 mps 746 mmHg 86%
    21:00 +7°C° 0 mm 3 mps 746 mmHg 87%
    22:00 +5°C° 0.1 mm 3 mps 746 mmHg 87%
    23:00 +5°C° 0.1 mm 4 mps 747 mmHg 88%
    Show more